LFBALFMN

Guest
Details From LFBA - Agen la Garenne
To LFMN - Nice/Cote d'Azur
Flight Number -
Tags decoded
Created
Modified
Stats Distance 288 nm / 534 km
Max Altitude 0 ft / 0 m
Waypoints 2
Social Downloads 0
Likes 0
Share VATSIM

Download

Looking for another format? Having issues loading an existing format? Contact us
Advertisement - Login to hide

Notes

Requested: LFBA LFMN

Route

LFBA LFMN

ID Type Via Altitude Latitude Longitude Leg Dist Tot Dist Heading (true) Name
O LFBA APT - 0 ft / 0 m 44.17403˚ 0.59296˚ - 0 nm - Agen la Garenne
O LFMN APT - 0 ft / 0 m 43.65798˚ 7.21536˚ 288 nm 288 nm 94° / 98° Nice/Cote d'Azur

Altitude Profile

Advertisement - Login to hide

Weather


0- 5 10 15 20 25 30 35+ Temperature / ° C

Clouds and Precipitation
Forecast for 2017-12-12 06:00 UTC. Updated an hour ago

Ground ~20,000 ft ~40,000 ft Winds

LFBA

Details ICAO LFBA (AGF)
Name Agen la Garenne
Region France
Timezone Europe/Paris (UTC+1.0)
Stats Elevation 204 ft / 62 m (AMSL)
Location 44.174025° 0.592961°
Runways 1
Magnetic Variation 0.341° E

METAR

LFBA 120430Z AUTO 28004KT 9999 FEW013 SCT066 OVC130 05/04 Q1009

Decode

TAF

Not found

Departure Runways

ID Width Length Bearing (true) Bearing (mag) Surface Threshold Offset Overrun Length
11 98 ft / 30 m 7,088 ft / 2,161 m 112.24° 111.90° Asphalt 541 ft / 165 m 0 ft / 0 m
29 98 ft / 30 m 7,088 ft / 2,161 m 292.26° 291.92° Asphalt 1,312 ft / 400 m 0 ft / 0 m

LFMN

Details ICAO LFMN (NCE)
Name Nice/Cote d'Azur
Region France
Timezone Unknown (UTC+0.0)
Stats Elevation 12 ft / 4 m (AMSL)
Location 43.657981° 7.215362°
Runways 2
Magnetic Variation 2.015° E

METAR

LFMN 120430Z 32004KT CAVOK 07/05 Q1005 NOSIG

Decode

TAF

TAF LFMN 120200Z 1203/1309 26012KT 9999 FEW010 BKN100 BECMG 1203/1205 SCT100 BECMG 1209/1210 22015KT TEMPO 1215/1216 20025KT

Decode

Destination Runways

ID Width Length Bearing (true) Bearing (mag) Surface Threshold Offset Overrun Length
04L 148 ft / 45 m 8,427 ft / 2,569 m 44.85° 42.83° Asphalt 0 ft / 0 m 131 ft / 40 m
04R 148 ft / 45 m 9,720 ft / 2,963 m 44.60° 42.58° Asphalt 0 ft / 0 m 427 ft / 130 m
22L 148 ft / 45 m 9,720 ft / 2,963 m 224.62° 222.60° Asphalt 0 ft / 0 m 525 ft / 160 m
22R 148 ft / 45 m 8,427 ft / 2,569 m 224.87° 222.85° Asphalt 0 ft / 0 m 492 ft / 150 m

Approach Navaids

Runway Type Ident Frequency Range Bearing (true) Bearing (mag) Slope Elevation
04L Localiser NI 109.95 MHz 27 nm / 50 km 44.90° 42.88° - 12 ft / 4 m (AMSL)
04L Glidescope NI 109.95 MHz 27 nm / 50 km 44.90° 42.88° 3.00° 12 ft / 4 m (AMSL)
04L DME NI 109.95 MHz 27 nm / 50 km - - - 12 ft / 4 m (AMSL)
04R Localiser NA 110.70 MHz 27 nm / 50 km 42.00° 39.98° - 12 ft / 4 m (AMSL)
04R Glidescope NA 110.70 MHz 27 nm / 50 km 42.00° 39.98° 3.00° 12 ft / 4 m (AMSL)
04R DME NA 110.70 MHz 27 nm / 50 km - - - 12 ft / 4 m (AMSL)

Popular Alternatives